Location: Albany
(35.0000°S, 118.0000°E)
Time: 06:24:21
(UTC-04:00)

Amateur Radio Satellites - All Passes

Search period start: 23 March 2017 05:54
Search period end: 24 March 2017 05:54
Location: Albany, 35.0000°S, 118.0000°E

Satellite Date Start Highest point End Downlink Frequencies (MHz)
Time Altitude Azimuth
M-CUBED/EXP-1 PRIME 23 Mar 05:59:10 06:03:20 37° 284° (WNW) 06:07:16 437.505
AO-7 23 Mar 06:07:28 06:11:47 15° 232° (SW) 06:16:08 .
DOVE 4 23 Mar 06:14:00 06:18:14 87° 263° (W) 06:22:27 437.250
STRAND 1 23 Mar 06:25:21 06:30:17 52° 107° (ESE) 06:35:18 437.568
CUTE-I 23 Mar 06:25:41 06:31:06 77° 77° (ENE) 06:36:28 437.470
LilacSat-2 23 Mar 06:29:55 06:33:50 61° 256° (WSW) 06:37:41 437.200
XW-2F 23 Mar 06:35:54 06:39:45 55° 256° (WSW) 06:43:33 145.980 - 146.000
HO-68 23 Mar 06:38:26 06:44:03 24° 85° (E) 06:49:36 435.675
YUBILEINY 23 Mar 06:45:59 06:53:44 37° 94° (E) 07:01:35 435.215
XW-2A 23 Mar 06:55:20 06:58:20 27° 83° (E) 07:01:19 145.665 - 145.685
XW-2D 23 Mar 06:59:44 07:03:01 26° 251° (WSW) 07:06:16 145.860 - 145.880
NO-84 23 Mar 07:03:05 07:07:28 73° 49° (NE) 07:11:59 435.350 FM
XW-2B 23 Mar 07:05:42 07:08:49 23° 251° (WSW) 07:11:55 145.730 - 145.750
NUDT-PHONESAT 23 Mar 07:13:57 07:16:56 22° 251° (WSW) 07:19:54 437.300
XW-2C 23 Mar 07:16:07 07:18:44 17° 249° (WSW) 07:21:21 145.795 - 145.815
KAITUO 1B 23 Mar 07:16:11 07:19:07 21° 250° (WSW) 07:22:02 145.475/437.950
BEESAT 3 23 Mar 07:24:50 07:27:55 23° 127° (SE) 07:30:59 437.485
BEESAT 2 23 Mar 07:32:53 07:34:16 12° 132° (SE) 07:35:40 435.950
AO-85 23 Mar 07:34:21 07:38:44 27° 289° (WNW) 07:42:57 145.980
AAUSAT CUBESAT 2 23 Mar 07:38:33 07:41:51 22° 85° (E) 07:45:06 437.432
CUTE 1.7 + AOD 2 23 Mar 07:40:37 07:45:00 85° 76° (ENE) 07:49:16 437.475
SEEDS 23 Mar 07:41:28 07:45:43 54° 80° (E) 07:49:51 437.485
JUGNU 23 Mar 07:47:51 07:48:23 10° 15° (NNE) 07:48:54 437.505
UWE-3 23 Mar 07:52:37 07:56:37 29° 83° (E) 08:00:38 435.000/436.395/437.385
PRISM 23 Mar 07:58:33 08:01:04 16° 113° (ESE) 08:03:36 437.425
STRAND 1 23 Mar 08:06:47 08:09:44 15° 273° (W) 08:12:42 437.568
CUTE-I 23 Mar 08:08:19 08:10:25 12° 242° (WSW) 08:12:32 437.470
CUBEBUG 2 23 Mar 08:17:27 08:22:00 85° 259° (WSW) 08:26:38 437.445
HO-68 23 Mar 08:25:00 08:32:03 56° 250° (WSW) 08:39:02 435.675
XW-2A 23 Mar 08:29:02 08:30:49 13° 249° (WSW) 08:32:35 145.665 - 145.685
ZACube-1 23 Mar 08:42:02 08:46:34 63° 79° (E) 08:51:06 437.345
YUBILEINY 23 Mar 08:42:07 08:50:18 43° 256° (WSW) 08:58:38 435.215
Oscar 11 23 Mar 08:42:20 08:46:37 46° 81° (E) 08:50:49 .
NO-84 23 Mar 08:42:24 08:45:36 19° 213° (SSW) 08:48:49 435.350 FM
TIGRISAT 23 Mar 09:00:30 09:04:20 33° 108° (ESE) 09:08:13 435.000
BEESAT 3 23 Mar 09:02:20 09:05:24 23° 292° (WNW) 09:08:26 437.485
BEESAT 2 23 Mar 09:08:33 09:12:22 56° 296° (WNW) 09:16:09 435.950
UNISAT 6 23 Mar 09:09:10 09:13:15 46° 106° (ESE) 09:17:25 437.425
AO-73 23 Mar 09:12:49 09:17:20 63° 256° (WSW) 09:21:51 145.935
AAUSAT CUBESAT 2 23 Mar 09:13:46 09:17:13 25° 251° (WSW) 09:20:37 437.432
SEEDS 23 Mar 09:19:30 09:20:51 11° 246° (WSW) 09:22:12 437.485
UWE-3 23 Mar 09:29:19 09:32:52 23° 250° (WSW) 09:36:26 435.000/436.395/437.385
PRISM 23 Mar 09:32:07 09:36:00 37° 279° (W) 09:39:56 437.425
DELFI C3 23 Mar 09:32:20 09:36:17 51° 80° (E) 09:40:08 145.870
JUGNU 23 Mar 09:32:58 09:36:37 17° 6° (N) 09:40:15 437.505
PCSat 23 Mar 09:34:47 09:40:05 60° 67° (ENE) 09:45:27 145.827
FO-29 23 Mar 09:49:52 09:55:00 69° 106° (ESE) 10:00:26 435.910
Oscar 11 23 Mar 10:20:03 10:22:17 14° 246° (WSW) 10:24:30 .
ZACube-1 23 Mar 10:20:54 10:22:16 11° 245° (WSW) 10:23:37 437.345
NANOSAT C BR1 23 Mar 10:25:29 10:28:45 22° 110° (ESE) 10:32:03 145.865
EO-79 23 Mar 10:27:20 10:30:49 26° 110° (ESE) 10:34:20 145.935-145.965
ESTCUBE 1 23 Mar 10:27:31 10:29:33 13° 88° (E) 10:31:33 437.505/2401.250
TIGRISAT 23 Mar 10:38:20 10:41:05 17° 274° (W) 10:43:53 435.000
AIST 2D 23 Mar 10:41:45 10:45:14 70° 103° (ESE) 10:48:48 435.315
LO-87 23 Mar 10:42:41 10:46:02 36° 82° (E) 10:49:20 145.935 - 145.965
UNISAT 6 23 Mar 10:48:34 10:50:12 12° 272° (W) 10:51:51 437.425
POLYITAN 1 23 Mar 10:53:32 10:57:38 53° 105° (ESE) 11:01:47 437.675
QB50P2 23 Mar 10:57:52 11:02:03 66° 104° (ESE) 11:06:18 145.880/145.840
DELFI C3 23 Mar 11:09:53 11:10:32 10° 246° (WSW) 11:11:11 145.870
RS-15 23 Mar 11:12:56 11:21:37 26° 77° (ENE) 11:30:01 29.354- 29.394
DUCHIFAT 1 23 Mar 11:15:58 11:20:09 83° 103° (ESE) 11:24:23 145.980
PCSat 23 Mar 11:20:12 11:23:52 18° 231° (SW) 11:27:35 145.827
JUGNU 23 Mar 11:21:10 11:24:54 17° 356° (N) 11:28:37 437.505
Oscar 19 23 Mar 11:26:19 11:28:16 12° 118° (ESE) 11:30:12 437.125/150
SRMSAT 23 Mar 11:29:02 11:32:13 15° 10° (N) 11:35:25 437.500
SPROUT 23 Mar 11:32:26 11:35:14 17° 86° (E) 11:38:01 437.525
FO-29 23 Mar 11:39:54 11:40:45 10° 269° (W) 11:41:35 435.910
DX 1 23 Mar 11:47:26 11:47:58 10° 88° (E) 11:48:30 434.975-435.025
BUGSAT 1 23 Mar 11:47:43 11:51:43 59° 104° (ESE) 11:55:45 437.445
VELOX 1 23 Mar 11:54:47 11:58:54 36° 82° (E) 12:02:57 145.980
50 SAT 23 Mar 11:58:40 12:01:27 22° 84° (E) 12:04:12 437.505
NANOSAT C BR1 23 Mar 12:00:50 12:04:18 25° 276° (W) 12:07:49 145.865
ESTCUBE 1 23 Mar 12:02:09 12:06:35 50° 254° (WSW) 12:10:57 437.505/2401.250
EO-79 23 Mar 12:03:14 12:06:30 22° 275° (W) 12:09:48 145.935-145.965
LO-87 23 Mar 12:18:02 12:19:05 11° 248° (WSW) 12:20:09 145.935 - 145.965
UKube-1 23 Mar 12:32:20 12:35:59 26° 83° (E) 12:39:35 .
POLYITAN 1 23 Mar 12:33:29 12:33:42 10° 272° (W) 12:33:55 437.675
Gurwin Techsat 1B 23 Mar 12:46:36 12:51:36 42° 109° (ESE) 12:56:39 435.225
Oscar 19 23 Mar 13:01:38 13:06:51 76° 282° (WNW) 13:12:09 437.125/150
SPROUT 23 Mar 13:07:17 13:11:12 34° 252° (WSW) 13:15:05 437.525
JUGNU 23 Mar 13:11:22 13:13:08 11° 346° (NNW) 13:14:54 437.505
SRMSAT 23 Mar 13:16:44 13:20:40 18° 360° (N) 13:24:36 437.500
AO-7 23 Mar 13:17:18 13:23:18 23° 123° (ESE) 13:29:21 .
DX 1 23 Mar 13:20:09 13:24:28 56° 254° (WSW) 13:28:43 434.975-435.025
RS-15 23 Mar 13:21:42 13:32:54 72° 239° (WSW) 13:43:50 29.354- 29.394
50 SAT 23 Mar 13:31:57 13:34:19 17° 250° (WSW) 13:36:39 437.505
VELOX 1 23 Mar 13:32:04 13:35:01 18° 247° (WSW) 13:37:57 145.980
NO-84 23 Mar 13:41:47 13:44:12 15° 150° (SSE) 13:46:31 435.350 FM
UKube-1 23 Mar 14:08:24 14:11:51 23° 249° (WSW) 14:15:16 .
SO-50 23 Mar 14:23:32 14:27:43 35° 67° (ENE) 14:31:59 436.795
BEESAT 23 Mar 14:25:17 14:29:38 32° 82° (E) 14:33:56 436.000
Gurwin Techsat 1B 23 Mar 14:27:45 14:31:40 21° 274° (W) 14:35:37 435.225
ITUPSAT 1 23 Mar 14:38:46 14:43:27 45° 80° (E) 14:48:04 437.325
ITAMSAT 1 23 Mar 14:40:32 14:45:44 87° 108° (ESE) 14:51:00 435.822/435.867
SRMSAT 23 Mar 15:06:00 15:09:06 14° 350° (N) 15:12:13 437.500
AO-7 23 Mar 15:06:51 15:15:10 76° 285° (WNW) 15:23:36 .
MOZHAYETS 4 23 Mar 15:14:04 15:18:35 44° 81° (E) 15:23:02
NO-84 23 Mar 15:18:26 15:22:25 78° 311° (NW) 15:25:59 435.350 FM
RS-15 23 Mar 15:39:50 15:47:32 21° 213° (SSW) 15:55:13 29.354- 29.394
CUBESAT XI-V 23 Mar 15:57:30 16:00:56 20° 86° (E) 16:04:20 437.345
BEESAT 23 Mar 16:03:24 16:07:11 23° 248° (WSW) 16:10:55 436.000
SO-50 23 Mar 16:04:33 16:08:15 23° 231° (SW) 16:12:01 436.795
STARS 23 Mar 16:09:30 16:11:50 14° 87° (E) 16:14:10 437.465
ITUPSAT 1 23 Mar 16:17:43 16:20:52 17° 246° (WSW) 16:24:00 437.325
MOZHAYETS 4 23 Mar 16:52:25 16:55:19 16° 246° (WSW) 16:58:11
KKS-1 23 Mar 16:57:56 17:02:22 62° 255° (WSW) 17:06:46 437.445
YUBILEINY 23 Mar 17:02:01 17:06:26 14° 116° (ESE) 17:10:48 435.215
HO-68 23 Mar 17:06:37 17:09:42 13° 124° (SE) 17:12:46 435.675
AO-7 23 Mar 17:06:47 17:09:02 11° 270° (W) 17:11:17 .
LilacSat-2 23 Mar 17:08:22 17:11:54 37° 107° (ESE) 17:15:30 437.200
O/OREOS (USA 219) 23 Mar 17:11:31 17:16:04 70° 249° (WSW) 17:20:39 437.305
XW-2F 23 Mar 17:13:21 17:16:53 39° 106° (ESE) 17:20:30 145.980 - 146.000
DOVE 4 23 Mar 17:15:20 17:20:14 64° 104° (ESE) 17:24:55 437.250
CUBESAT XI-V 23 Mar 17:34:05 17:38:21 34° 251° (WSW) 17:42:33 437.345
XW-2D 23 Mar 17:36:44 17:40:33 90° 281° (W) 17:44:25 145.860 - 145.880
M-CUBED/EXP-1 PRIME 23 Mar 17:42:25 17:44:12 14° 81° (E) 17:45:58 437.505
XW-2B 23 Mar 17:42:36 17:46:23 78° 281° (WNW) 17:50:16 145.730 - 145.750
CUTE-I 23 Mar 17:44:07 17:49:27 89° 97° (E) 17:54:52 437.470
STARS 23 Mar 17:44:08 17:48:21 43° 253° (WSW) 17:52:30 437.465
NUDT-PHONESAT 23 Mar 17:48:58 17:52:41 80° 282° (WNW) 17:56:28 437.300
KAITUO 1B 23 Mar 17:51:45 17:55:29 73° 283° (WNW) 17:59:20 145.475/437.950
XW-2C 23 Mar 17:52:43 17:56:25 55° 280° (W) 18:00:14 145.795 - 145.815
RS-15 23 Mar 18:03:28 18:06:26 11° 175° (S) 18:09:24 29.354- 29.394
PCSat 23 Mar 18:26:27 18:30:54 25° 126° (SE) 18:35:18 145.827
AAUSAT CUBESAT 2 23 Mar 18:28:02 18:28:37 10° 115° (ESE) 18:29:14 437.432
CUTE 1.7 + AOD 2 23 Mar 18:29:44 18:33:42 38° 107° (ESE) 18:37:44 437.475
SEEDS 23 Mar 18:30:05 18:33:33 24° 110° (ESE) 18:37:03 437.485
STRAND 1 23 Mar 18:39:48 18:43:55 23° 85° (E) 18:48:00 437.568
LilacSat-2 23 Mar 18:44:49 18:46:19 12° 272° (W) 18:47:49 437.200
UWE-3 23 Mar 18:47:47 18:50:11 15° 113° (ESE) 18:52:34 435.000/436.395/437.385
HO-68 23 Mar 18:49:02 18:56:13 79° 107° (ESE) 19:03:30 435.675
XW-2F 23 Mar 18:50:08 18:51:12 11° 272° (W) 18:52:16 145.980 - 146.000
XW-2A 23 Mar 18:55:26 18:58:47 68° 281° (W) 19:02:11 145.665 - 145.685
YUBILEINY 23 Mar 18:55:37 19:04:36 83° 95° (E) 19:13:25 435.215
DOVE 4 23 Mar 18:56:52 18:58:10 11° 272° (W) 18:59:27 437.250
CUBEBUG 2 23 Mar 19:12:21 19:16:22 50° 105° (ESE) 19:20:28 437.445
M-CUBED/EXP-1 PRIME 23 Mar 19:16:00 19:18:42 23° 246° (WSW) 19:21:20 437.505
Oscar 11 23 Mar 19:34:09 19:37:38 24° 110° (ESE) 19:41:11 .
ZACube-1 23 Mar 19:34:54 19:38:33 30° 109° (ESE) 19:42:15 437.345
ISS 23 Mar 19:55:43 19:57:37 14° 53° (NE) 19:59:32 437.550
AAUSAT CUBESAT 2 23 Mar 19:59:22 20:03:30 59° 280° (W) 20:07:44 437.432
AO-73 23 Mar 20:04:47 20:08:53 63° 105° (ESE) 20:13:07 145.935
AO-85 23 Mar 20:04:59 20:08:39 23° 71° (ENE) 20:12:35 145.980
SEEDS 23 Mar 20:05:42 20:09:07 23° 275° (W) 20:12:35 437.485
CUTE 1.7 + AOD 2 23 Mar 20:07:08 20:09:38 15° 273° (W) 20:12:11 437.475
PCSat 23 Mar 20:09:19 20:14:23 40° 290° (WNW) 20:19:24 145.827
Tancredo 1 23 Mar 20:09:53 20:12:32 23° 50° (NE) 20:15:11 437.200
DELFI C3 23 Mar 20:15:10 20:18:04 19° 110° (ESE) 20:20:59 145.870
RS-15 23 Mar 20:15:31 20:24:31 28° 140° (SE) 20:33:40 29.354- 29.394
STRAND 1 23 Mar 20:18:24 20:23:06 35° 250° (WSW) 20:27:46 437.568
UWE-3 23 Mar 20:22:25 20:26:16 37° 278° (W) 20:30:12 435.000/436.395/437.385
HO-68 23 Mar 20:40:28 20:44:34 16° 272° (W) 20:48:41 435.675
CUBEBUG 2 23 Mar 20:52:39 20:53:16 10° 271° (W) 20:53:54 437.445
YUBILEINY 23 Mar 20:55:02 21:00:09 17° 259° (W) 21:05:16 435.215
FO-29 23 Mar 21:03:28 21:06:31 13° 89° (E) 21:09:39 435.910
UNISAT 6 23 Mar 21:05:19 21:07:39 14° 87° (E) 21:09:59 437.425
Oscar 11 23 Mar 21:10:03 21:13:38 25° 276° (W) 21:17:17 .
ZACube-1 23 Mar 21:12:00 21:14:50 18° 274° (W) 21:17:45 437.345
PRISM 23 Mar 21:16:37 21:20:26 35° 82° (E) 21:24:12 437.425
ISS 23 Mar 21:30:37 21:33:48 43° 219° (SW) 21:37:01 437.550
AO-85 23 Mar 21:44:28 21:48:52 36° 234° (SW) 21:53:35 145.980
Tancredo 1 23 Mar 21:45:46 21:48:35 27° 215° (SW) 21:51:26 437.200
DELFI C3 23 Mar 21:49:12 21:52:38 27° 276° (W) 21:56:07 145.870
RS-15 23 Mar 22:27:08 22:38:12 85° 297° (WNW) 22:49:45 29.354- 29.394
TIGRISAT 23 Mar 22:30:48 22:35:22 67° 255° (WSW) 22:39:59 435.000
UNISAT 6 23 Mar 22:40:06 22:44:32 48° 254° (WSW) 22:49:00 437.425
POLYITAN 1 23 Mar 22:43:51 22:45:16 11° 88° (E) 22:46:41 437.675
FO-29 23 Mar 22:45:00 22:52:01 86° 78° (ENE) 22:59:43 435.910
QB50P2 23 Mar 22:47:30 22:49:49 14° 87° (E) 22:52:05 145.880/145.840
BEESAT 3 23 Mar 22:48:08 22:52:01 66° 239° (WSW) 22:55:53 437.485
LO-87 23 Mar 22:48:25 22:51:53 43° 279° (W) 22:55:23 145.935 - 145.965
VELOX 1 23 Mar 22:49:08 22:52:35 22° 111° (ESE) 22:56:04 145.980
PRISM 23 Mar 22:52:57 22:55:23 15° 247° (WSW) 22:57:47 437.425
BEESAT 2 23 Mar 22:56:29 23:00:20 52° 65° (ENE) 23:04:10 435.950
ESTCUBE 1 23 Mar 22:57:41 23:02:15 84° 283° (WNW) 23:06:54 437.505/2401.250
SO-50 23 Mar 22:58:32 23:01:36 16° 133° (SE) 23:04:39 436.795
DUCHIFAT 1 23 Mar 23:04:18 23:07:05 17° 86° (E) 23:09:50 145.980
UKube-1 23 Mar 23:24:32 23:27:05 15° 114° (ESE) 23:29:39 .
BUGSAT 1 23 Mar 23:35:02 23:36:08 11° 88° (E) 23:37:14 437.445
AIST 2D 23 Mar 23:43:11 23:46:46 56° 257° (WSW) 23:50:17 435.315
NANOSAT C BR1 23 Mar 23:47:22 23:51:38 64° 79° (E) 23:55:52 145.865
EO-79 23 Mar 23:49:51 23:54:10 76° 78° (ENE) 23:58:26 145.935-145.965
SPROUT 23 Mar 23:56:33 00:00:48 71° 282° (WNW) 00:05:07 437.525
50 SAT 24 Mar 00:00:47 00:04:20 78° 282° (WNW) 00:07:57 437.505
DX 1 24 Mar 00:11:46 00:16:11 80° 105° (ESE) 00:20:37 434.975-435.025
POLYITAN 1 24 Mar 00:17:06 00:21:17 49° 254° (WSW) 00:25:26 437.675
QB50P2 24 Mar 00:21:41 00:25:44 40° 253° (WSW) 00:29:45 145.880/145.840
VELOX 1 24 Mar 00:24:59 00:28:51 28° 277° (W) 00:32:45 145.980
FO-29 24 Mar 00:32:13 00:36:20 17° 243° (WSW) 00:40:38 435.910
BEESAT 2 24 Mar 00:36:36 00:38:23 13° 228° (SW) 00:40:09 435.950
SO-50 24 Mar 00:37:42 00:42:27 59° 296° (WNW) 00:47:09 436.795
DUCHIFAT 1 24 Mar 00:38:56 00:42:48 33° 252° (WSW) 00:46:37 145.980
RS-15 24 Mar 00:42:44 00:48:58 17° 280° (W) 00:55:22 29.354- 29.394
UKube-1 24 Mar 00:58:38 01:02:44 41° 279° (W) 01:06:52 .
Gurwin Techsat 1B 24 Mar 01:06:48 01:10:54 22° 85° (E) 01:14:56 435.225
BUGSAT 1 24 Mar 01:07:43 01:11:42 47° 254° (WSW) 01:15:42 437.445
Oscar 19 24 Mar 01:16:44 01:21:49 50° 80° (E) 01:26:48 437.125/150
BEESAT 24 Mar 01:28:37 01:32:35 26° 111° (ESE) 01:36:35 436.000
ITUPSAT 1 24 Mar 01:42:15 01:46:36 36° 109° (ESE) 01:51:01 437.325
O/OREOS (USA 219) 24 Mar 01:48:03 01:49:33 11° 123° (ESE) 01:51:02 437.305
MOZHAYETS 4 24 Mar 02:12:47 02:16:44 29° 110° (ESE) 02:20:44
Tancredo 1 24 Mar 02:40:06 02:40:57 11° 155° (SSE) 02:41:49 437.200
Gurwin Techsat 1B 24 Mar 02:45:55 02:50:55 40° 251° (WSW) 02:55:51 435.225
ITAMSAT 1 24 Mar 02:56:55 03:01:53 40° 81° (E) 03:06:47 435.822/435.867
Oscar 19 24 Mar 02:57:18 03:00:40 18° 245° (WSW) 03:03:59 437.125/150
CUBESAT XI-V 24 Mar 02:58:26 03:00:58 14° 114° (ESE) 03:03:32 437.345
BEESAT 24 Mar 03:06:11 03:10:13 27° 277° (W) 03:14:20 436.000
AO-7 24 Mar 03:12:26 03:20:29 46° 79° (E) 03:28:24 .
ITUPSAT 1 24 Mar 03:21:00 03:24:29 20° 275° (W) 03:28:01 437.325
O/OREOS (USA 219) 24 Mar 03:24:53 03:29:22 63° 287° (WNW) 03:33:48 437.305
MOZHAYETS 4 24 Mar 03:50:11 03:53:50 23° 275° (W) 03:57:33
KKS-1 24 Mar 03:52:10 03:56:38 79° 104° (ESE) 04:01:09 437.445
ISS 24 Mar 04:00:59 04:04:12 44° 141° (SE) 04:07:21 437.550
Tancredo 1 24 Mar 04:14:23 04:17:37 73° 138° (SE) 04:20:47 437.200
M-CUBED/EXP-1 PRIME 24 Mar 04:24:47 04:27:27 16° 116° (ESE) 04:30:02 437.505
CUBESAT XI-V 24 Mar 04:33:14 04:37:51 52° 279° (W) 04:42:31 437.345
STARS 24 Mar 04:36:48 04:41:12 76° 282° (WNW) 04:45:38 437.465
ITAMSAT 1 24 Mar 04:37:04 04:41:02 22° 246° (WSW) 04:44:57 435.822/435.867
AO-85 24 Mar 04:40:05 04:42:36 13° 137° (SE) 04:45:05 145.980
AO-7 24 Mar 05:05:29 05:12:57 37° 242° (WSW) 05:20:23 .
XW-2D 24 Mar 05:14:25 05:16:06 12° 87° (E) 05:17:46 145.860 - 145.880
DOVE 4 24 Mar 05:18:26 05:21:27 19° 85° (E) 05:24:28 437.250
XW-2B 24 Mar 05:19:52 05:22:00 14° 87° (E) 05:24:07 145.730 - 145.750
NUDT-PHONESAT 24 Mar 05:24:33 05:26:15 12° 87° (E) 05:27:55 437.300
KAITUO 1B 24 Mar 05:27:43 05:29:49 14° 87° (E) 05:31:55 145.475/437.950
XW-2C 24 Mar 05:29:17 05:32:08 19° 85° (E) 05:34:57 145.795 - 145.815
ISS 24 Mar 05:38:36 05:40:21 14° 307° (NW) 05:42:05 437.550
